Time,TemperatureF,DewpointF,PressureIn,WindDirection,WindDirectionDegrees,WindSpeedMPH,WindSpeedGustMPH,Humidity,HourlyPrecipIn,Conditions,Clouds,dailyrainin,SoftwareType,DateUTC
2013-03-02 00:00:00,35.6,9.3,28.85,ENE,68,0.0,0.0,33,0.00,CLR,SCT,0.00,WeatherDisplay:10.37,2013-03-02 05:00:00,
2013-03-02 00:05:00,35.6,9.3,28.85,ENE,68,0.0,0.0,33,0.00,CLR,SCT,0.00,WeatherDisplay:10.37,2013-03-02 05:05:00,
2013-03-02 00:10:00,35.6,9.3,28.85,ENE,68,0.0,0.0,33,0.00,CLR,SCT,0.00,WeatherDisplay:10.37,2013-03-02 05:10:00,
2013-03-02 00:15:00,35.6,9.3,28.85,ENE,68,0.0,0.0,33,0.00,CLR,SCT,0.00,WeatherDisplay:10.37,2013-03-02 05:15:00,
2013-03-02 00:21:00,35.6,9.3,28.85,ENE,68,0.0,0.0,33,0.00,CLR,SCT,0.00,WeatherDisplay:10.37,2013-03-02 05:21:00,
2013-03-02 00:26:00,35.6,9.3,28.85,ENE,68,0.0,0.0,33,0.00,CLR,SCT,0.00,WeatherDisplay:10.37,2013-03-02 05:26:00,
2013-03-02 00:31:00,35.6,9.3,28.85,ENE,68,0.0,0.0,33,0.00,CLR,SCT,0.00,WeatherDisplay:10.37,2013-03-02 05:31:00,
2013-03-02 00:36:00,35.6,9.3,28.85,ENE,68,0.0,0.0,33,0.00,CLR,SCT,0.00,WeatherDisplay:10.37,2013-03-02 05:36:00,
2013-03-02 00:41:00,35.6,9.3,28.85,ENE,68,0.0,0.0,33,0.00,CLR,SCT,0.00,WeatherDisplay:10.37,2013-03-02 05:41:00,
2013-03-02 00:46:00,35.6,9.3,28.85,ENE,68,0.0,0.0,33,0.00,CLR,SCT,0.00,WeatherDisplay:10.37,2013-03-02 05:46:00,
2013-03-02 00:51:00,35.6,9.3,28.85,ENE,68,0.0,0.0,33,0.00,CLR,SCT,0.00,WeatherDisplay:10.37,2013-03-02 05:51:00,
2013-03-02 00:56:00,35.6,9.3,28.85,ENE,68,0.0,0.0,33,0.00,CLR,SCT,0.00,WeatherDisplay:10.37,2013-03-02 05:56:00,
2013-03-02 01:01:00,35.6,9.3,28.85,ENE,68,0.0,0.0,33,0.00,CLR,SCT,0.00,WeatherDisplay:10.37,2013-03-02 06:01:00,
2013-03-02 01:06:00,35.6,9.3,28.85,SE,135,0.0,0.0,33,0.00,CLR,SCT,0.00,WeatherDisplay:10.37,2013-03-02 06:06:00,
2013-03-02 01:11:00,35.6,9.3,28.88,NNE,22,0.0,0.0,33,0.00,CLR,SCT,0.00,WeatherDisplay:10.37,2013-03-02 06:11:00,
2013-03-02 01:16:00,35.6,9.3,28.88,SE,135,0.0,0.0,33,0.00,CLR,SCT,0.00,WeatherDisplay:10.37,2013-03-02 06:16:00,
2013-03-02 01:21:00,35.6,9.3,28.88,SE,135,0.0,0.0,33,0.00,CLR,SCT,0.00,WeatherDisplay:10.37,2013-03-02 06:21:00,
2013-03-02 01:26:00,35.6,9.3,28.85,East,90,0.0,0.0,33,0.00,CLR,SCT,0.00,WeatherDisplay:10.37,2013-03-02 06:26:00,
2013-03-02 01:31:00,35.6,9.3,28.85,East,90,0.0,0.0,33,0.00,CLR,SCT,0.00,WeatherDisplay:10.37,2013-03-02 06:31:00,
2013-03-02 01:36:00,35.6,9.3,28.85,East,90,0.0,0.0,33,0.00,CLR,SCT,0.00,WeatherDisplay:10.37,2013-03-02 06:36:00,
2013-03-02 01:41:00,35.6,9.3,28.85,East,90,0.0,0.0,33,0.00,CLR,SCT,0.00,WeatherDisplay:10.37,2013-03-02 06:41:00,
2013-03-02 01:46:00,35.6,9.3,28.85,East,90,0.0,0.0,33,0.00,CLR,SCT,0.00,WeatherDisplay:10.37,2013-03-02 06:46:00,
2013-03-02 01:51:00,35.6,9.3,28.85,East,90,0.0,0.0,33,0.00,CLR,SCT,0.00,WeatherDisplay:10.37,2013-03-02 06:51:00,
2013-03-02 01:56:00,35.6,9.3,28.85,East,90,0.0,0.0,33,0.00,CLR,SCT,0.00,WeatherDisplay:10.37,2013-03-02 06:56:00,
2013-03-02 02:01:00,35.6,9.3,28.85,East,90,0.0,0.0,33,0.00,CLR,SCT,0.00,WeatherDisplay:10.37,2013-03-02 07:01:00,
2013-03-02 02:06:00,35.6,9.3,28.85,East,90,0.0,0.0,33,0.00,CLR,SCT,0.00,WeatherDisplay:10.37,2013-03-02 07:06:00,
2013-03-02 02:11:00,35.6,9.3,28.85,East,90,0.0,0.0,33,0.00,CLR,SCT,0.00,WeatherDisplay:10.37,2013-03-02 07:11:00,
2013-03-02 02:16:00,35.6,9.3,28.85,ESE,112,0.0,0.0,33,0.00,CLR,SCT,0.00,WeatherDisplay:10.37,2013-03-02 07:16:00,
2013-03-02 02:21:00,35.6,9.3,28.85,South,180,1.1,0.0,33,0.00,CLR,SCT,0.00,WeatherDisplay:10.37,2013-03-02 07:21:00,
2013-03-02 02:26:00,35.6,9.3,28.85,SW,225,0.0,0.0,33,0.00,CLR,SCT,0.00,WeatherDisplay:10.37,2013-03-02 07:26:00,
2013-03-02 02:31:00,35.6,9.3,28.85,WSW,248,0.0,0.0,33,0.00,CLR,SCT,0.00,WeatherDisplay:10.37,2013-03-02 07:31:00,
2013-03-02 02:36:00,35.6,9.3,28.85,WSW,248,0.0,0.0,33,0.00,CLR,SCT,0.00,WeatherDisplay:10.37,2013-03-02 07:36:00,
2013-03-02 02:41:00,35.6,9.3,28.85,WSW,248,0.0,0.0,33,0.00,CLR,SCT,0.00,WeatherDisplay:10.37,2013-03-02 07:41:00,
2013-03-02 02:46:00,35.6,9.3,28.85,WSW,248,0.0,0.0,33,0.00,CLR,SCT,0.00,WeatherDisplay:10.37,2013-03-02 07:46:00,
2013-03-02 02:51:00,35.6,9.3,28.85,WSW,248,0.0,0.0,33,0.00,CLR,SCT,0.00,WeatherDisplay:10.37,2013-03-02 07:51:00,
2013-03-02 02:56:00,35.6,9.3,28.85,WSW,248,0.0,0.0,33,0.00,CLR,SCT,0.00,WeatherDisplay:10.37,2013-03-02 07:56:00,
2013-03-02 03:01:00,35.6,9.3,28.85,WSW,248,0.0,0.0,33,0.00,CLR,SCT,0.00,WeatherDisplay:10.37,2013-03-02 08:01:00,
2013-03-02 03:06:00,35.6,9.3,28.85,WSW,248,0.0,0.0,33,0.00,CLR,SCT,0.00,WeatherDisplay:10.37,2013-03-02 08:06:00,
2013-03-02 03:11:00,35.6,9.3,28.85,WSW,248,0.0,0.0,33,0.00,CLR,SCT,0.00,WeatherDisplay:10.37,2013-03-02 08:11:00,
2013-03-02 03:16:00,35.6,9.3,28.85,WSW,248,0.0,0.0,33,0.00,CLR,SCT,0.00,WeatherDisplay:10.37,2013-03-02 08:16:00,
2013-03-02 03:21:00,35.6,9.3,28.85,WSW,248,0.0,0.0,33,0.00,CLR,SCT,0.00,WeatherDisplay:10.37,2013-03-02 08:21:00,
2013-03-02 03:26:00,35.6,9.3,28.82,WSW,248,0.0,0.0,33,0.00,CLR,SCT,0.00,WeatherDisplay:10.37,2013-03-02 08:26:00,
2013-03-02 03:31:00,35.6,9.3,28.82,WSW,248,0.0,0.0,33,0.00,CLR,SCT,0.00,WeatherDisplay:10.37,2013-03-02 08:31:00,
2013-03-02 03:36:00,35.6,9.3,28.82,SW,225,0.0,0.0,33,0.00,CLR,SCT,0.00,WeatherDisplay:10.37,2013-03-02 08:36:00,
2013-03-02 03:41:00,35.6,9.3,28.82,SW,225,0.0,0.0,33,0.00,CLR,SCT,0.00,WeatherDisplay:10.37,2013-03-02 08:41:00,
2013-03-02 03:46:00,35.6,9.3,28.82,WSW,248,0.0,0.0,33,0.00,CLR,SCT,0.00,WeatherDisplay:10.37,2013-03-02 08:46:00,
2013-03-02 03:51:00,35.6,9.3,28.82,WSW,248,0.0,0.0,33,0.00,CLR,SCT,0.00,WeatherDisplay:10.37,2013-03-02 08:51:00,
2013-03-02 03:56:00,35.6,9.3,28.82,East,90,0.0,0.0,33,0.00,CLR,SCT,0.00,WeatherDisplay:10.37,2013-03-02 08:56:00,
2013-03-02 04:01:00,35.6,9.3,28.82,East,90,0.0,0.0,33,0.00,CLR,SCT,0.00,WeatherDisplay:10.37,2013-03-02 09:01:00,
2013-03-02 04:06:00,35.6,9.3,28.82,East,90,0.0,0.0,33,0.00,CLR,SCT,0.00,WeatherDisplay:10.37,2013-03-02 09:06:00,
2013-03-02 04:11:00,35.6,9.3,28.82,East,90,0.0,0.0,33,0.00,CLR,SCT,0.00,WeatherDisplay:10.37,2013-03-02 09:11:00,
2013-03-02 04:16:00,35.6,9.3,28.82,East,90,0.0,0.0,33,0.00,CLR,SCT,0.00,WeatherDisplay:10.37,2013-03-02 09:16:00,
2013-03-02 04:21:00,35.6,9.3,28.82,East,90,0.0,0.0,33,0.00,CLR,SCT,0.00,WeatherDisplay:10.37,2013-03-02 09:21:00,
2013-03-02 04:26:00,35.6,9.3,28.82,East,90,0.0,0.0,33,0.00,CLR,SCT,0.00,WeatherDisplay:10.37,2013-03-02 09:26:00,
2013-03-02 04:31:00,35.6,9.3,28.82,East,90,0.0,0.0,33,0.00,CLR,SCT,0.00,WeatherDisplay:10.37,2013-03-02 09:31:00,
2013-03-02 04:36:00,35.6,9.3,28.82,East,90,0.0,0.0,33,0.00,CLR,SCT,0.00,WeatherDisplay:10.37,2013-03-02 09:36:00,
2013-03-02 04:41:00,35.6,9.3,28.82,East,90,0.0,0.0,33,0.00,CLR,SCT,0.00,WeatherDisplay:10.37,2013-03-02 09:41:00,
2013-03-02 04:46:00,35.6,9.3,28.82,East,90,0.0,0.0,33,0.00,CLR,SCT,0.00,WeatherDisplay:10.37,2013-03-02 09:46:00,
2013-03-02 04:51:00,35.6,9.3,28.82,East,90,0.0,0.0,33,0.00,CLR,SCT,0.00,WeatherDisplay:10.37,2013-03-02 09:51:00,
2013-03-02 04:56:00,35.6,9.3,28.82,East,90,0.0,0.0,33,0.00,CLR,SCT,0.00,WeatherDisplay:10.37,2013-03-02 09:56:00,
2013-03-02 05:01:00,35.6,9.3,28.82,WNW,292,2.4,2.4,33,0.00,CLR,SCT,0.00,WeatherDisplay:10.37,2013-03-02 10:01:00,
2013-03-02 05:06:00,35.6,9.3,28.82,West,270,3.6,3.6,33,0.00,CLR,SCT,0.00,WeatherDisplay:10.37,2013-03-02 10:06:00,
2013-03-02 05:11:00,35.6,9.3,28.85,NNW,338,2.3,2.3,33,0.00,CLR,SCT,0.00,WeatherDisplay:10.37,2013-03-02 10:11:00,
2013-03-02 05:16:00,35.6,9.3,28.85,NW,315,2.3,2.3,33,0.00,CLR,SCT,0.00,WeatherDisplay:10.37,2013-03-02 10:16:00,
2013-03-02 05:21:00,35.6,9.3,28.85,WSW,248,2.9,2.9,33,0.00,CLR,SCT,0.00,WeatherDisplay:10.37,2013-03-02 10:21:00,
2013-03-02 05:26:00,35.6,9.3,28.85,West,270,0.0,0.0,33,0.00,CLR,SCT,0.00,WeatherDisplay:10.37,2013-03-02 10:26:00,
2013-03-02 05:31:00,35.6,9.3,28.85,WNW,292,1.1,1.1,33,0.00,CLR,SCT,0.00,WeatherDisplay:10.37,2013-03-02 10:31:00,
2013-03-02 05:36:00,35.6,9.3,28.85,WNW,292,1.1,0.0,33,0.00,CLR,SCT,0.00,WeatherDisplay:10.37,2013-03-02 10:36:00,
2013-03-02 05:41:00,35.6,9.3,28.85,West,270,0.0,0.0,33,0.00,CLR,SCT,0.00,WeatherDisplay:10.37,2013-03-02 10:41:00,
2013-03-02 05:46:00,35.6,9.3,28.85,West,270,1.4,0.0,33,0.00,CLR,SCT,0.00,WeatherDisplay:10.37,2013-03-02 10:46:00,
2013-03-02 05:51:00,35.6,9.3,28.85,WSW,248,1.1,1.1,33,0.00,CLR,SCT,0.00,WeatherDisplay:10.37,2013-03-02 10:51:00,
2013-03-02 05:56:00,35.6,9.3,28.82,West,270,0.0,0.0,33,0.00,CLR,SCT,0.00,WeatherDisplay:10.37,2013-03-02 10:56:00,
2013-03-02 06:01:00,35.6,9.3,28.82,WSW,248,1.1,0.0,33,0.00,CLR,SCT,0.00,WeatherDisplay:10.37,2013-03-02 11:01:00,
2013-03-02 06:06:00,35.6,9.3,28.82,WSW,248,0.0,0.0,33,0.00,CLR,SCT,0.00,WeatherDisplay:10.37,2013-03-02 11:06:00,
2013-03-02 06:11:00,35.6,9.3,28.82,WSW,248,0.0,0.0,33,0.00,CLR,SCT,0.00,WeatherDisplay:10.37,2013-03-02 11:11:00,
2013-03-02 06:16:00,35.6,9.3,28.82,WSW,248,0.0,0.0,33,0.00,CLR,SCT,0.00,WeatherDisplay:10.37,2013-03-02 11:16:00,
2013-03-02 06:21:00,35.6,9.3,28.82,West,270,1.1,0.0,33,0.00,CLR,SCT,0.00,WeatherDisplay:10.37,2013-03-02 11:21:00,
2013-03-02 06:26:00,35.6,9.3,28.85,West,270,0.0,0.0,33,0.00,CLR,SCT,0.00,WeatherDisplay:10.37,2013-03-02 11:26:00,
2013-03-02 06:31:00,35.6,9.3,28.85,West,270,1.1,1.1,33,0.00,CLR,SCT,0.00,WeatherDisplay:10.37,2013-03-02 11:31:00,
2013-03-02 06:36:00,35.6,9.3,28.85,WSW,248,1.6,1.6,33,0.00,CLR,SCT,0.00,WeatherDisplay:10.37,2013-03-02 11:36:00,
2013-03-02 06:41:00,35.6,9.3,28.82,West,270,0.0,0.0,33,0.00,CLR,SCT,0.00,WeatherDisplay:10.37,2013-03-02 11:41:00,
2013-03-02 06:46:00,35.6,9.3,28.82,WSW,248,2.4,2.4,33,0.00,CLR,SCT,0.00,WeatherDisplay:10.37,2013-03-02 11:46:00,
2013-03-02 06:51:00,35.6,9.3,28.82,West,270,2.3,2.3,33,0.00,CLR,SCT,0.00,WeatherDisplay:10.37,2013-03-02 11:51:00,
2013-03-02 06:56:00,35.6,9.3,28.85,WSW,248,2.3,2.3,33,0.00,CLR,SCT,0.00,WeatherDisplay:10.37,2013-03-02 11:56:00,
2013-03-02 07:01:00,35.6,9.3,28.85,West,270,1.1,0.0,33,0.00,CLR,SCT,0.00,WeatherDisplay:10.37,2013-03-02 12:01:00,
2013-03-02 07:06:00,35.6,9.3,28.85,WNW,292,2.3,2.3,33,0.00,CLR,SCT,0.00,WeatherDisplay:10.37,2013-03-02 12:06:00,
2013-03-02 07:11:00,35.6,9.3,28.85,West,270,1.1,1.1,33,0.00,CLR,SCT,0.00,WeatherDisplay:10.37,2013-03-02 12:11:00,
2013-03-02 07:16:00,35.6,9.3,28.85,WNW,292,2.3,2.3,33,0.00,CLR,SCT,0.00,WeatherDisplay:10.37,2013-03-02 12:16:00,
2013-03-02 07:21:00,35.6,9.3,28.85,West,270,3.1,3.1,33,0.00,CLR,SCT,0.00,WeatherDisplay:10.37,2013-03-02 12:21:00,
2013-03-02 07:26:00,35.6,9.3,28.85,West,270,2.3,2.4,33,0.00,CLR,SCT,0.00,WeatherDisplay:10.37,2013-03-02 12:26:00,
2013-03-02 07:31:00,35.6,9.3,28.85,WNW,292,2.6,2.6,33,0.00,CLR,SCT,0.00,WeatherDisplay:10.37,2013-03-02 12:31:00,
2013-03-02 07:36:00,35.6,9.3,28.85,WNW,292,2.9,2.9,33,0.00,CLR,SCT,0.00,WeatherDisplay:10.37,2013-03-02 12:36:00,
2013-03-02 07:41:00,35.6,9.3,28.88,WNW,292,2.6,2.6,33,0.00,CLR,SCT,0.00,WeatherDisplay:10.37,2013-03-02 12:41:00,
2013-03-02 07:46:00,35.6,9.3,28.88,WNW,292,1.1,1.4,33,0.00,CLR,SCT,0.00,WeatherDisplay:10.37,2013-03-02 12:46:00,
2013-03-02 07:51:00,35.6,9.3,28.88,West,270,2.3,2.3,33,0.00,CLR,SCT,0.00,WeatherDisplay:10.37,2013-03-02 12:51:00,
2013-03-02 07:56:00,35.6,9.3,28.82,WSW,248,0.0,0.0,33,0.00,CLR,SCT,0.00,WeatherDisplay:10.37,2013-03-02 12:56:00,
2013-03-02 08:01:00,35.6,9.3,28.82,West,270,2.4,2.4,33,0.00,CLR,SCT,0.00,WeatherDisplay:10.37,2013-03-02 13:01:00,
2013-03-02 08:06:00,35.6,9.3,28.82,WSW,248,3.5,3.5,33,0.00,CLR,SCT,0.00,WeatherDisplay:10.37,2013-03-02 13:06:00,
2013-03-02 08:11:00,35.6,9.3,28.85,WSW,248,2.3,2.3,33,0.00,CLR,SCT,0.00,WeatherDisplay:10.37,2013-03-02 13:11:00,
2013-03-02 08:16:00,35.6,9.3,28.85,WNW,292,2.3,2.3,33,0.00,CLR,SCT,0.00,WeatherDisplay:10.37,2013-03-02 13:16:00,
2013-03-02 08:21:00,35.6,9.3,28.85,WSW,248,2.3,2.3,33,0.00,CLR,SCT,0.00,WeatherDisplay:10.37,2013-03-02 13:21:00,
2013-03-02 08:26:00,35.6,9.3,28.85,West,270,2.3,2.3,33,0.00,CLR,SCT,0.00,WeatherDisplay:10.37,2013-03-02 13:26:00,
2013-03-02 08:31:00,35.6,9.3,28.85,West,270,2.3,2.3,33,0.00,CLR,SCT,0.00,WeatherDisplay:10.37,2013-03-02 13:31:00,
2013-03-02 08:36:00,35.6,9.3,28.85,West,270,2.3,2.3,33,0.00,CLR,SCT,0.00,WeatherDisplay:10.37,2013-03-02 13:36:00,
2013-03-02 08:41:00,35.6,9.3,28.85,West,270,2.3,2.3,33,0.00,CLR,SCT,0.00,WeatherDisplay:10.37,2013-03-02 13:41:00,
2013-03-02 08:46:00,35.6,9.3,28.85,West,270,2.3,2.3,33,0.00,CLR,SCT,0.00,WeatherDisplay:10.37,2013-03-02 13:46:00,
2013-03-02 08:51:00,35.6,9.3,28.85,WNW,292,2.4,2.4,33,0.00,CLR,SCT,0.00,WeatherDisplay:10.37,2013-03-02 13:51:00,
2013-03-02 08:56:00,35.6,9.3,28.82,West,270,2.3,2.3,33,0.00,CLR,SCT,0.00,WeatherDisplay:10.37,2013-03-02 13:56:00,
2013-03-02 09:01:00,35.6,9.3,28.82,WSW,248,2.3,2.3,33,0.00,CLR,SCT,0.00,WeatherDisplay:10.37,2013-03-02 14:01:00,
2013-03-02 09:06:00,35.6,9.3,28.82,SW,225,2.4,2.4,33,0.00,CLR,SCT,0.00,WeatherDisplay:10.37,2013-03-02 14:06:00,
2013-03-02 09:11:00,35.6,9.3,28.85,West,270,2.3,2.3,33,0.00,CLR,SCT,0.00,WeatherDisplay:10.37,2013-03-02 14:11:00,
2013-03-02 09:31:00,35.6,9.3,28.85,West,270,2.3,2.3,33,0.00,CLR,SCT,0.00,WeatherDisplay:10.37,2013-03-02 14:31:00,
2013-03-02 09:36:00,39.4,26.2,28.85,WNW,292,4.0,4.0,59,0.00,CLR,SCT,0.00,WeatherDisplay:10.37,2013-03-02 14:36:00,
2013-03-02 09:41:00,39.0,24.2,28.85,WNW,292,5.8,5.8,55,0.00,CLR,SCT,0.00,WeatherDisplay:10.37,2013-03-02 14:41:00,
2013-03-02 09:46:00,38.8,24.5,28.85,West,270,2.4,2.4,56,0.00,CLR,SCT,0.00,WeatherDisplay:10.37,2013-03-02 14:46:00,
2013-03-02 09:51:00,38.8,24.5,28.85,West,270,5.8,5.8,56,0.00,CLR,SCT,0.00,WeatherDisplay:10.37,2013-03-02 14:51:00,
2013-03-02 09:56:00,38.9,24.5,28.85,West,270,5.8,5.8,56,0.00,CLR,SCT,0.00,WeatherDisplay:10.37,2013-03-02 14:56:00,
2013-03-02 10:01:00,38.8,23.6,28.85,WNW,283,3.0,0.0,54,0.00,CLR,SCT,0.00,WeatherDisplay:10.37,2013-03-02 15:01:00,
2013-03-02 10:06:00,39.2,24.4,28.85,WNW,292,2.9,2.9,55,0.00,CLR,SCT,0.00,WeatherDisplay:10.37,2013-03-02 15:06:00,
2013-03-02 10:11:00,39.4,23.7,28.85,West,270,3.5,3.5,53,0.00,CLR,SCT,0.00,WeatherDisplay:10.37,2013-03-02 15:11:00,
2013-03-02 10:16:00,39.4,23.7,28.85,WNW,292,2.3,2.3,53,0.00,CLR,SCT,0.00,WeatherDisplay:10.37,2013-03-02 15:16:00,
2013-03-02 10:21:00,39.4,23.7,28.85,West,270,2.0,2.0,53,0.00,CLR,SCT,0.00,WeatherDisplay:10.37,2013-03-02 15:21:00,
2013-03-02 10:26:00,39.4,23.7,28.85,West,270,3.5,3.5,53,0.00,CLR,SCT,0.00,WeatherDisplay:10.37,2013-03-02 15:26:00,
2013-03-02 10:31:00,41.5,25.2,28.85,WSW,248,1.4,1.4,52,0.00,CLR,SCT,0.00,WeatherDisplay:10.37,2013-03-02 15:31:00,
2013-03-02 10:36:00,41.5,25.2,28.85,SSW,202,2.3,2.3,52,0.00,CLR,SCT,0.00,WeatherDisplay:10.37,2013-03-02 15:36:00,
2013-03-02 10:41:00,41.5,25.2,28.85,WSW,248,2.6,2.6,52,0.00,CLR,SCT,0.00,WeatherDisplay:10.37,2013-03-02 15:41:00,
2013-03-02 10:46:00,45.0,26.9,28.85,WNW,292,2.0,2.2,49,0.00,CLR,SCT,0.00,WeatherDisplay:10.37,2013-03-02 15:46:00,
2013-03-02 10:52:00,45.0,26.9,28.82,North,0,0.9,3.5,49,0.00,CLR,SCT,0.00,WeatherDisplay:10.37,2013-03-02 15:52:00,
2013-03-02 10:57:00,45.9,26.7,28.82,WSW,248,0.0,1.2,47,0.00,CLR,SCT,0.00,WeatherDisplay:10.37,2013-03-02 15:57:00,
2013-03-02 11:02:00,46.0,22.4,28.82,NW,315,2.6,2.6,39,0.00,CLR,SCT,0.00,WeatherDisplay:10.37,2013-03-02 16:02:00,
2013-03-02 11:07:00,45.7,22.7,28.85,WSW,248,2.3,2.3,40,0.00,CLR,SCT,0.00,WeatherDisplay:10.37,2013-03-02 16:07:00,
2013-03-02 11:12:00,45.5,21.9,28.85,NW,315,2.4,2.4,39,0.00,CLR,SCT,0.00,WeatherDisplay:10.37,2013-03-02 16:12:00,
2013-03-02 11:17:00,46.4,22.8,28.85,WSW,248,1.6,1.6,39,0.00,CLR,SCT,0.00,WeatherDisplay:10.37,2013-03-02 16:17:00,
2013-03-02 11:22:00,48.2,24.4,28.82,WSW,248,2.3,2.3,39,0.00,CLR,SCT,0.00,WeatherDisplay:10.37,2013-03-02 16:22:00,
2013-03-02 11:27:00,48.6,24.1,28.82,NW,315,2.6,2.6,38,0.00,CLR,SCT,0.00,WeatherDisplay:10.37,2013-03-02 16:27:00,
2013-03-02 11:32:00,48.9,23.8,28.82,WSW,248,2.3,2.3,37,0.00,CLR,SCT,0.00,WeatherDisplay:10.37,2013-03-02 16:32:00,
2013-03-02 11:37:00,48.9,23.8,28.85,SW,225,2.3,2.3,37,0.00,CLR,SCT,0.00,WeatherDisplay:10.37,2013-03-02 16:37:00,
2013-03-02 11:42:00,49.5,24.9,28.85,SW,225,2.3,2.3,38,0.00,CLR,SCT,0.00,WeatherDisplay:10.37,2013-03-02 16:42:00,
2013-03-02 11:47:00,49.1,24.6,28.85,SW,225,2.3,2.4,38,0.00,CLR,SCT,0.00,WeatherDisplay:10.37,2013-03-02 16:47:00,
2013-03-02 11:52:00,49.6,25.0,28.85,South,180,2.3,2.3,38,0.00,CLR,SCT,0.00,WeatherDisplay:10.37,2013-03-02 16:52:00,
2013-03-02 11:57:00,49.6,25.0,28.85,WSW,248,4.6,4.6,38,0.00,CLR,SCT,0.00,WeatherDisplay:10.37,2013-03-02 16:57:00,
2013-03-02 12:02:00,52.5,21.9,28.85,SSE,158,2.3,2.3,30,0.00,CLR,SCT,0.00,WeatherDisplay:10.37,2013-03-02 17:02:00,
2013-03-02 12:07:00,52.2,21.6,28.85,West,270,3.5,3.5,30,0.00,CLR,SCT,0.00,WeatherDisplay:10.37,2013-03-02 17:07:00,
2013-03-02 12:12:00,49.6,20.2,28.85,West,270,2.3,2.3,31,0.00,CLR,SCT,0.00,WeatherDisplay:10.37,2013-03-02 17:12:00,
2013-03-02 12:17:00,49.6,20.2,28.85,South,180,2.6,2.6,31,0.00,CLR,SCT,0.00,WeatherDisplay:10.37,2013-03-02 17:17:00,
2013-03-02 12:22:00,49.5,20.0,28.85,East,90,1.4,1.4,31,0.00,CLR,SCT,0.00,WeatherDisplay:10.37,2013-03-02 17:22:00,
2013-03-02 12:27:00,48.6,19.3,28.85,SE,135,1.2,0.0,31,0.00,CLR,SCT,0.00,WeatherDisplay:10.37,2013-03-02 17:27:00,
2013-03-02 12:32:00,50.4,21.6,28.85,South,180,2.3,2.3,32,0.00,CLR,SCT,0.00,WeatherDisplay:10.37,2013-03-02 17:32:00,
2013-03-02 12:37:00,50.5,21.7,28.85,WSW,248,2.4,2.4,32,0.00,CLR,SCT,0.00,WeatherDisplay:10.37,2013-03-02 17:37:00,
2013-03-02 12:42:00,50.0,20.5,28.85,West,270,3.5,3.5,31,0.00,CLR,SCT,0.00,WeatherDisplay:10.37,2013-03-02 17:42:00,
2013-03-02 12:47:00,49.3,19.9,28.85,SSE,158,2.3,2.3,31,0.00,CLR,SCT,0.00,WeatherDisplay:10.37,2013-03-02 17:47:00,
2013-03-02 12:52:00,49.3,19.9,28.82,South,180,3.5,3.5,31,0.00,CLR,SCT,0.00,WeatherDisplay:10.37,2013-03-02 17:52:00,
2013-03-02 12:57:00,49.3,19.9,28.82,South,180,2.3,2.3,31,0.00,CLR,SCT,0.00,WeatherDisplay:10.37,2013-03-02 17:57:00,
2013-03-02 13:02:00,48.7,19.4,28.82,WNW,292,2.2,2.2,31,0.00,CLR,SCT,0.00,WeatherDisplay:10.37,2013-03-02 18:02:00,
2013-03-02 13:07:00,48.7,19.4,28.82,South,180,2.3,2.3,31,0.00,CLR,SCT,0.00,WeatherDisplay:10.37,2013-03-02 18:07:00,
2013-03-02 13:12:00,48.7,20.2,28.82,SE,135,3.5,3.5,32,0.00,CLR,SCT,0.00,WeatherDisplay:10.37,2013-03-02 18:12:00,
2013-03-02 13:17:00,47.8,20.1,28.82,WSW,248,2.3,2.3,33,0.00,CLR,SCT,0.00,WeatherDisplay:10.37,2013-03-02 18:17:00,
2013-03-02 13:22:00,47.8,20.1,28.79,SSW,202,2.9,2.9,33,0.00,CLR,SCT,0.00,WeatherDisplay:10.37,2013-03-02 18:22:00,
2013-03-02 13:27:00,48.6,20.7,28.79,SSW,202,1.4,1.4,33,0.00,CLR,SCT,0.00,WeatherDisplay:10.37,2013-03-02 18:27:00,
2013-03-02 13:32:00,49.5,21.5,28.79,SSE,158,2.9,2.9,33,0.00,CLR,SCT,0.00,WeatherDisplay:10.37,2013-03-02 18:32:00,
2013-03-02 13:37:00,50.4,21.6,28.79,WNW,292,2.6,2.6,32,0.00,CLR,SCT,0.00,WeatherDisplay:10.37,2013-03-02 18:37:00,
2013-03-02 13:42:00,50.0,19.7,28.79,NNW,338,2.3,2.4,30,0.00,CLR,SCT,0.00,WeatherDisplay:10.37,2013-03-02 18:42:00,
2013-03-02 13:47:00,50.2,19.9,28.79,West,270,2.3,2.4,30,0.00,CLR,SCT,0.00,WeatherDisplay:10.37,2013-03-02 18:47:00,
2013-03-02 13:52:00,52.0,21.5,28.79,ESE,112,3.5,3.5,30,0.00,CLR,SCT,0.00,WeatherDisplay:10.37,2013-03-02 18:52:00,
2013-03-02 13:57:00,52.0,20.7,28.79,SE,135,3.5,3.5,29,0.00,CLR,SCT,0.00,WeatherDisplay:10.37,2013-03-02 18:57:00,
2013-03-02 14:02:00,52.7,22.1,28.79,SSE,158,2.9,2.9,30,0.00,CLR,SCT,0.00,WeatherDisplay:10.37,2013-03-02 19:02:00,
2013-03-02 14:07:00,53.2,22.6,28.79,SSE,158,2.3,2.3,30,0.00,CLR,SCT,0.00,WeatherDisplay:10.37,2013-03-02 19:07:00,
2013-03-02 14:12:00,54.0,21.6,28.79,WSW,248,4.6,4.6,28,0.00,CLR,SCT,0.00,WeatherDisplay:10.37,2013-03-02 19:12:00,
2013-03-02 14:17:00,54.3,21.9,28.79,SW,225,2.3,2.3,28,0.00,CLR,SCT,0.00,WeatherDisplay:10.37,2013-03-02 19:17:00,
2013-03-02 14:22:00,53.1,20.8,28.76,WNW,292,3.5,3.5,28,0.00,CLR,SCT,0.00,WeatherDisplay:10.37,2013-03-02 19:22:00,
2013-03-02 14:27:00,51.3,20.0,28.76,WSW,248,2.3,2.3,29,0.00,CLR,SCT,0.00,WeatherDisplay:10.37,2013-03-02 19:27:00,
2013-03-02 14:32:00,50.7,19.6,28.76,South,180,2.9,2.9,29,0.00,CLR,SCT,0.00,WeatherDisplay:10.37,2013-03-02 19:32:00,
2013-03-02 14:37:00,50.5,19.4,28.76,West,270,2.3,2.3,29,0.00,CLR,SCT,0.00,WeatherDisplay:10.37,2013-03-02 19:37:00,
2013-03-02 14:42:00,50.5,19.4,28.76,West,270,2.3,2.3,29,0.00,CLR,SCT,0.00,WeatherDisplay:10.37,2013-03-02 19:42:00,
2013-03-02 14:47:00,50.5,19.4,28.76,SSE,158,2.3,2.3,29,0.00,CLR,SCT,0.00,WeatherDisplay:10.37,2013-03-02 19:47:00,
2013-03-02 14:52:00,49.6,18.6,28.79,SSE,158,1.6,0.0,29,0.00,CLR,SCT,0.00,WeatherDisplay:10.37,2013-03-02 19:52:00,
2013-03-02 14:57:00,49.5,18.5,28.79,WSW,248,3.1,3.1,29,0.00,CLR,SCT,0.00,WeatherDisplay:10.37,2013-03-02 19:57:00,
2013-03-02 15:02:00,49.3,17.5,28.79,West,270,2.3,2.3,28,0.00,CLR,SCT,0.00,WeatherDisplay:10.37,2013-03-02 20:02:00,
2013-03-02 15:07:00,49.1,17.3,28.76,WNW,292,2.3,2.3,28,0.00,CLR,SCT,0.00,WeatherDisplay:10.37,2013-03-02 20:07:00,
2013-03-02 15:12:00,48.7,17.0,28.76,South,180,2.3,2.3,28,0.00,CLR,SCT,0.00,WeatherDisplay:10.37,2013-03-02 20:12:00,
2013-03-02 15:17:00,48.6,16.9,28.76,West,270,2.3,2.3,28,0.00,CLR,SCT,0.00,WeatherDisplay:10.37,2013-03-02 20:17:00,
2013-03-02 15:22:00,47.8,16.3,28.79,WSW,248,4.6,4.6,28,0.00,CLR,SCT,0.00,WeatherDisplay:10.37,2013-03-02 20:22:00,
2013-03-02 15:27:00,47.8,16.3,28.79,West,270,2.3,2.3,28,0.00,CLR,SCT,0.00,WeatherDisplay:10.37,2013-03-02 20:27:00,
2013-03-02 15:32:00,47.1,16.4,28.79,WSW,248,2.3,2.3,29,0.00,CLR,SCT,0.00,WeatherDisplay:10.37,2013-03-02 20:32:00,
2013-03-02 15:37:00,46.9,16.3,28.79,South,180,0.9,0.9,29,0.00,CLR,SCT,0.00,WeatherDisplay:10.37,2013-03-02 20:37:00,
2013-03-02 15:42:00,46.9,16.3,28.79,WSW,248,1.4,1.4,29,0.00,CLR,SCT,0.00,WeatherDisplay:10.37,2013-03-02 20:42:00,
2013-03-02 15:47:00,47.3,16.6,28.79,NNE,22,2.3,2.3,29,0.00,CLR,SCT,0.00,WeatherDisplay:10.37,2013-03-02 20:47:00,
2013-03-02 15:53:00,47.5,16.8,28.79,NNE,22,2.6,2.6,29,0.00,CLR,SCT,0.00,WeatherDisplay:10.37,2013-03-02 20:53:00,
2013-03-02 15:58:00,47.5,16.8,28.79,NNE,22,2.6,2.6,29,0.00,CLR,SCT,0.00,WeatherDisplay:10.37,2013-03-02 20:58:00,
2013-03-02 16:03:00,47.5,16.8,28.79,NNE,22,2.6,2.6,29,0.00,CLR,SCT,0.00,WeatherDisplay:10.37,2013-03-02 21:03:00,
2013-03-02 16:08:00,47.5,16.8,28.79,NNE,22,2.6,2.6,29,0.00,CLR,SCT,0.00,WeatherDisplay:10.37,2013-03-02 21:08:00,
2013-03-02 16:13:00,47.5,16.8,28.79,NNE,22,2.6,2.6,29,0.00,CLR,SCT,0.00,WeatherDisplay:10.37,2013-03-02 21:13:00,
2013-03-02 16:18:00,47.5,16.8,28.79,NNE,22,2.6,2.6,29,0.00,CLR,SCT,0.00,WeatherDisplay:10.37,2013-03-02 21:18:00,
2013-03-02 16:23:00,47.5,16.8,28.79,NNE,22,2.6,2.6,29,0.00,CLR,SCT,0.00,WeatherDisplay:10.37,2013-03-02 21:23:00,
2013-03-02 16:28:00,47.5,16.8,28.79,NNE,22,2.6,2.6,29,0.00,CLR,SCT,0.00,WeatherDisplay:10.37,2013-03-02 21:28:00,
2013-03-02 16:33:00,50.0,16.4,28.79,WSW,248,3.5,3.5,26,0.00,CLR,SCT,0.00,WeatherDisplay:10.37,2013-03-02 21:33:00,
2013-03-02 16:38:00,50.7,17.0,28.79,WNW,292,2.3,2.3,26,0.00,CLR,SCT,0.00,WeatherDisplay:10.37,2013-03-02 21:38:00,
2013-03-02 16:43:00,50.7,17.0,28.79,West,270,2.6,2.6,26,0.00,CLR,SCT,0.00,WeatherDisplay:10.37,2013-03-02 21:43:00,
2013-03-02 16:48:00,51.6,17.8,28.79,SW,225,3.5,3.5,26,0.00,CLR,SCT,0.00,WeatherDisplay:10.37,2013-03-02 21:48:00,
2013-03-02 16:53:00,51.6,17.8,28.79,West,270,3.5,3.5,26,0.00,CLR,SCT,0.00,WeatherDisplay:10.37,2013-03-02 21:53:00,
2013-03-02 16:58:00,50.2,16.6,28.79,SSW,202,3.3,3.3,26,0.00,CLR,SCT,0.00,WeatherDisplay:10.37,2013-03-02 21:58:00,
2013-03-02 17:03:00,50.4,16.7,28.79,West,270,1.2,1.4,26,0.00,CLR,SCT,0.00,WeatherDisplay:10.37,2013-03-02 22:03:00,
2013-03-02 17:08:00,50.0,16.4,28.79,WSW,248,2.9,0.0,26,0.00,CLR,SCT,0.00,WeatherDisplay:10.37,2013-03-02 22:08:00,
2013-03-02 17:13:00,49.5,15.9,28.79,West,270,1.6,1.6,26,0.00,CLR,SCT,0.00,WeatherDisplay:10.37,2013-03-02 22:13:00,
2013-03-02 17:18:00,49.5,15.9,28.79,WSW,248,3.5,3.5,26,0.00,CLR,SCT,0.00,WeatherDisplay:10.37,2013-03-02 22:18:00,
2013-03-02 17:23:00,48.0,15.6,28.76,WSW,248,1.2,0.0,27,0.00,CLR,SCT,0.00,WeatherDisplay:10.37,2013-03-02 22:23:00,
2013-03-02 17:28:00,46.9,14.6,28.76,SSW,202,1.2,1.2,27,0.00,CLR,SCT,0.00,WeatherDisplay:10.37,2013-03-02 22:28:00,
2013-03-02 17:33:00,46.8,14.5,28.76,WSW,248,0.0,0.0,27,0.00,CLR,SCT,0.00,WeatherDisplay:10.37,2013-03-02 22:33:00,
2013-03-02 17:38:00,45.9,13.7,28.76,SW,225,0.0,0.0,27,0.00,CLR,SCT,0.00,WeatherDisplay:10.37,2013-03-02 22:38:00,
2013-03-02 17:43:00,45.7,13.6,28.76,SW,225,0.0,0.0,27,0.00,CLR,SCT,0.00,WeatherDisplay:10.37,2013-03-02 22:43:00,
2013-03-02 17:48:00,45.3,13.2,28.76,SW,225,1.2,0.0,27,0.00,CLR,SCT,0.00,WeatherDisplay:10.37,2013-03-02 22:48:00,
2013-03-02 17:53:00,45.3,13.2,28.79,SW,225,1.2,1.2,27,0.00,CLR,SCT,0.00,WeatherDisplay:10.37,2013-03-02 22:53:00,
2013-03-02 17:58:00,44.6,12.6,28.79,WSW,248,2.3,2.3,27,0.00,CLR,SCT,0.00,WeatherDisplay:10.37,2013-03-02 22:58:00,
2013-03-02 18:03:00,44.2,13.1,28.79,SSW,202,2.3,2.3,28,0.00,CLR,SCT,0.00,WeatherDisplay:10.37,2013-03-02 23:03:00,
2013-03-02 18:08:00,44.1,13.0,28.79,SSW,202,0.0,0.0,28,0.00,CLR,SCT,0.00,WeatherDisplay:10.37,2013-03-02 23:08:00,
2013-03-02 18:13:00,44.1,13.0,28.79,SW,225,1.2,1.2,28,0.00,CLR,SCT,0.00,WeatherDisplay:10.37,2013-03-02 23:13:00,
2013-03-02 18:18:00,44.1,13.0,28.79,SW,225,2.9,2.9,28,0.00,CLR,SCT,0.00,WeatherDisplay:10.37,2013-03-02 23:18:00,
2013-03-02 18:23:00,43.7,12.7,28.82,SW,225,2.3,2.3,28,0.00,CLR,SCT,0.00,WeatherDisplay:10.37,2013-03-02 23:23:00,
2013-03-02 18:28:00,43.7,12.7,28.82,WSW,248,2.3,2.3,28,0.00,CLR,SCT,0.00,WeatherDisplay:10.37,2013-03-02 23:28:00,
2013-03-02 18:33:00,43.5,12.5,28.82,West,270,2.3,2.3,28,0.00,CLR,SCT,0.00,WeatherDisplay:10.37,2013-03-02 23:33:00,
2013-03-02 18:38:00,43.5,12.5,28.79,WSW,248,2.3,2.3,28,0.00,CLR,SCT,0.00,WeatherDisplay:10.37,2013-03-02 23:38:00,
2013-03-02 18:43:00,43.5,12.5,28.79,WSW,248,2.6,2.6,28,0.00,CLR,SCT,0.00,WeatherDisplay:10.37,2013-03-02 23:43:00,
2013-03-02 18:48:00,43.5,12.5,28.79,West,270,2.3,2.3,28,0.00,CLR,SCT,0.00,WeatherDisplay:10.37,2013-03-02 23:48:00,
2013-03-02 18:53:00,43.5,12.5,28.82,West,270,1.2,1.2,28,0.00,CLR,SCT,0.00,WeatherDisplay:10.37,2013-03-02 23:53:00,
2013-03-02 18:58:00,43.5,12.5,28.82,WSW,248,2.3,2.3,28,0.00,CLR,SCT,0.00,WeatherDisplay:10.37,2013-03-02 23:58:00,
2013-03-02 19:03:00,43.3,12.4,28.82,WSW,248,2.3,2.3,28,0.00,CLR,SCT,0.00,WeatherDisplay:10.37,2013-03-03 00:03:00,
2013-03-02 19:08:00,43.3,12.4,28.82,SW,225,2.3,2.3,28,0.00,CLR,SCT,0.00,WeatherDisplay:10.37,2013-03-03 00:08:00,
2013-03-02 19:13:00,43.3,12.4,28.82,WNW,292,2.3,2.3,28,0.00,CLR,SCT,0.00,WeatherDisplay:10.37,2013-03-03 00:13:00,
2013-03-02 19:18:00,43.2,12.2,28.82,West,270,3.5,3.5,28,0.00,CLR,SCT,0.00,WeatherDisplay:10.37,2013-03-03 00:18:00,
2013-03-02 19:23:00,43.2,12.2,28.85,WNW,292,3.5,3.5,28,0.00,CLR,SCT,0.00,WeatherDisplay:10.37,2013-03-03 00:23:00,
2013-03-02 19:28:00,43.2,12.2,28.85,West,270,1.6,1.6,28,0.00,CLR,SCT,0.00,WeatherDisplay:10.37,2013-03-03 00:28:00,
2013-03-02 19:33:00,43.0,12.0,28.85,WNW,292,2.9,2.9,28,0.00,CLR,SCT,0.00,WeatherDisplay:10.37,2013-03-03 00:33:00,
2013-03-02 19:38:00,43.0,12.0,28.85,NNW,338,2.3,2.3,28,0.00,CLR,SCT,0.00,WeatherDisplay:10.37,2013-03-03 00:38:00,
2013-03-02 19:43:00,42.8,11.9,28.85,NW,315,1.2,0.0,28,0.00,CLR,SCT,0.00,WeatherDisplay:10.37,2013-03-03 00:43:00,
2013-03-02 19:48:00,42.8,11.9,28.85,WNW,292,1.2,0.0,28,0.00,CLR,SCT,0.00,WeatherDisplay:10.37,2013-03-03 00:48:00,
2013-03-02 19:53:00,42.6,11.7,28.85,West,270,1.4,1.4,28,0.00,CLR,SCT,0.00,WeatherDisplay:10.37,2013-03-03 00:53:00,
2013-03-02 19:58:00,42.6,11.7,28.85,SW,225,0.9,0.0,28,0.00,CLR,SCT,0.00,WeatherDisplay:10.37,2013-03-03 00:58:00,
2013-03-02 20:03:00,42.4,11.6,28.85,SW,225,2.6,2.6,28,0.00,CLR,SCT,0.00,WeatherDisplay:10.37,2013-03-03 01:03:00,
2013-03-02 20:08:00,42.3,11.4,28.85,WSW,248,2.0,2.0,28,0.00,CLR,SCT,0.00,WeatherDisplay:10.37,2013-03-03 01:08:00,
2013-03-02 20:13:00,42.3,11.4,28.85,West,270,2.3,2.3,28,0.00,CLR,SCT,0.00,WeatherDisplay:10.37,2013-03-03 01:13:00,
2013-03-02 20:18:00,42.3,11.4,28.85,WSW,248,2.3,2.3,28,0.00,CLR,SCT,0.00,WeatherDisplay:10.37,2013-03-03 01:18:00,
2013-03-02 20:23:00,41.7,11.0,28.85,SW,225,1.4,1.4,28,0.00,CLR,SCT,0.00,WeatherDisplay:10.37,2013-03-03 01:23:00,
2013-03-02 20:28:00,41.7,11.0,28.85,NW,315,2.9,2.9,28,0.00,CLR,SCT,0.00,WeatherDisplay:10.37,2013-03-03 01:28:00,
2013-03-02 20:33:00,41.7,11.0,28.85,West,270,2.4,2.4,28,0.00,CLR,SCT,0.00,WeatherDisplay:10.37,2013-03-03 01:33:00,
2013-03-02 20:38:00,41.7,11.0,28.85,WSW,248,2.4,2.4,28,0.00,CLR,SCT,0.00,WeatherDisplay:10.37,2013-03-03 01:38:00,
2013-03-02 20:43:00,41.7,11.0,28.85,West,270,2.3,2.3,28,0.00,CLR,SCT,0.00,WeatherDisplay:10.37,2013-03-03 01:43:00,
2013-03-02 20:48:00,41.7,11.0,28.85,WSW,248,2.3,2.3,28,0.00,CLR,SCT,0.00,WeatherDisplay:10.37,2013-03-03 01:48:00,
2013-03-02 20:53:00,41.7,11.0,28.85,SSW,202,1.2,1.4,28,0.00,CLR,SCT,0.00,WeatherDisplay:10.37,2013-03-03 01:53:00,
2013-03-02 20:58:00,41.7,11.0,28.85,WSW,248,0.0,0.0,28,0.00,CLR,SCT,0.00,WeatherDisplay:10.37,2013-03-03 01:58:00,
2013-03-02 21:03:00,40.5,10.7,28.85,WSW,248,0.0,0.0,29,0.00,CLR,SCT,0.00,WeatherDisplay:10.37,2013-03-03 02:03:00,
2013-03-02 21:08:00,40.5,10.7,28.88,WSW,248,2.6,2.6,29,0.00,CLR,SCT,0.00,WeatherDisplay:10.37,2013-03-03 02:08:00,
2013-03-02 21:13:00,40.5,10.7,28.88,WSW,248,2.3,2.3,29,0.00,CLR,SCT,0.00,WeatherDisplay:10.37,2013-03-03 02:13:00,
2013-03-02 21:18:00,40.5,10.7,28.88,West,270,3.5,3.5,29,0.00,CLR,SCT,0.00,WeatherDisplay:10.37,2013-03-03 02:18:00,
2013-03-02 21:23:00,40.5,10.7,28.88,West,270,2.3,2.3,29,0.00,CLR,SCT,0.00,WeatherDisplay:10.37,2013-03-03 02:23:00,
2013-03-02 21:28:00,40.5,10.7,28.88,West,270,1.2,1.2,29,0.00,CLR,SCT,0.00,WeatherDisplay:10.37,2013-03-03 02:28:00,
2013-03-02 21:33:00,39.6,9.9,28.88,WSW,248,1.2,1.4,29,0.00,CLR,SCT,0.00,WeatherDisplay:10.37,2013-03-03 02:33:00,
2013-03-02 21:38:00,39.2,9.6,28.88,WNW,292,2.3,2.3,29,0.00,CLR,SCT,0.00,WeatherDisplay:10.37,2013-03-03 02:38:00,
2013-03-02 21:43:00,39.2,9.6,28.88,WSW,248,2.3,2.3,29,0.00,CLR,SCT,0.00,WeatherDisplay:10.37,2013-03-03 02:43:00,
2013-03-02 21:48:00,39.2,9.6,28.88,West,270,2.0,2.0,29,0.00,CLR,SCT,0.00,WeatherDisplay:10.37,2013-03-03 02:48:00,
2013-03-02 21:53:00,39.2,9.6,28.88,West,270,1.2,1.2,29,0.00,CLR,SCT,0.00,WeatherDisplay:10.37,2013-03-03 02:53:00,
2013-03-02 21:58:00,39.2,9.6,28.88,West,270,1.2,1.4,29,0.00,CLR,SCT,0.00,WeatherDisplay:10.37,2013-03-03 02:58:00,
2013-03-02 22:03:00,39.2,9.6,28.88,WNW,292,2.4,2.4,29,0.00,CLR,SCT,0.00,WeatherDisplay:10.37,2013-03-03 03:03:00,
2013-03-02 22:08:00,39.2,9.6,28.88,WSW,248,2.6,2.6,29,0.00,CLR,SCT,0.00,WeatherDisplay:10.37,2013-03-03 03:08:00,
2013-03-02 22:13:00,39.2,9.6,28.88,West,270,3.1,3.1,29,0.00,CLR,SCT,0.00,WeatherDisplay:10.37,2013-03-03 03:13:00,
2013-03-02 22:18:00,39.2,9.6,28.88,West,270,1.4,1.4,29,0.00,CLR,SCT,0.00,WeatherDisplay:10.37,2013-03-03 03:18:00,
2013-03-02 22:23:00,39.2,9.6,28.88,WNW,292,2.6,2.6,29,0.00,CLR,SCT,0.00,WeatherDisplay:10.37,2013-03-03 03:23:00,
2013-03-02 22:28:00,39.2,9.6,28.88,WSW,248,3.5,3.5,29,0.00,CLR,SCT,0.00,WeatherDisplay:10.37,2013-03-03 03:28:00,
2013-03-02 22:33:00,39.2,9.6,28.88,West,270,3.5,3.5,29,0.00,CLR,SCT,0.00,WeatherDisplay:10.37,2013-03-03 03:33:00,
2013-03-02 22:38:00,39.2,9.6,28.88,West,270,3.6,3.6,29,0.00,CLR,SCT,0.00,WeatherDisplay:10.37,2013-03-03 03:38:00,
2013-03-02 22:43:00,39.2,9.6,28.88,NNW,338,4.6,4.6,29,0.00,CLR,SCT,0.00,WeatherDisplay:10.37,2013-03-03 03:43:00,
2013-03-02 22:48:00,39.2,9.6,28.88,NW,315,4.0,4.0,29,0.00,CLR,SCT,0.00,WeatherDisplay:10.37,2013-03-03 03:48:00,
2013-03-02 22:53:00,39.2,9.6,28.88,NW,315,3.5,3.5,29,0.00,CLR,SCT,0.00,WeatherDisplay:10.37,2013-03-03 03:53:00,
2013-03-02 22:58:00,39.2,9.6,28.88,WNW,292,3.5,3.5,29,0.00,CLR,SCT,0.00,WeatherDisplay:10.37,2013-03-03 03:58:00,
2013-03-02 23:03:00,39.2,9.6,28.88,NW,315,3.5,3.5,29,0.00,CLR,SCT,0.00,WeatherDisplay:10.37,2013-03-03 04:03:00,
2013-03-02 23:08:00,39.2,9.6,28.88,WNW,292,3.5,3.5,29,0.00,CLR,SCT,0.00,WeatherDisplay:10.37,2013-03-03 04:08:00,
2013-03-02 23:13:00,39.2,9.6,28.88,West,270,1.2,0.0,29,0.00,CLR,SCT,0.00,WeatherDisplay:10.37,2013-03-03 04:13:00,
2013-03-02 23:18:00,39.2,9.6,28.88,West,270,0.0,0.0,29,0.00,CLR,SCT,0.00,WeatherDisplay:10.37,2013-03-03 04:18:00,
2013-03-02 23:23:00,39.2,9.6,28.88,WSW,248,0.0,0.0,29,0.00,CLR,SCT,0.00,WeatherDisplay:10.37,2013-03-03 04:23:00,
2013-03-02 23:28:00,39.2,9.6,28.88,WNW,292,2.0,2.0,29,0.00,CLR,SCT,0.00,WeatherDisplay:10.37,2013-03-03 04:28:00,
2013-03-02 23:33:00,39.2,9.6,28.88,WSW,248,2.3,2.3,29,0.00,CLR,SCT,0.00,WeatherDisplay:10.37,2013-03-03 04:33:00,
2013-03-02 23:38:00,39.2,9.6,28.88,West,270,0.0,0.0,29,0.00,CLR,SCT,0.00,WeatherDisplay:10.37,2013-03-03 04:38:00,
2013-03-02 23:43:00,39.2,9.6,28.88,West,270,0.0,0.0,29,0.00,CLR,SCT,0.00,WeatherDisplay:10.37,2013-03-03 04:43:00,
2013-03-02 23:48:00,39.2,9.6,28.88,WSW,248,1.2,0.0,29,0.00,CLR,SCT,0.00,WeatherDisplay:10.37,2013-03-03 04:48:00,
2013-03-02 23:53:00,33.8,5.6,28.88,WSW,248,0.0,0.0,30,0.00,CLR,SCT,0.00,WeatherDisplay:10.37,2013-03-03 04:53:00,
2013-03-02 23:58:00,33.8,5.6,28.88,WSW,248,0.0,0.0,30,0.00,CLR,SCT,0.00,WeatherDisplay:10.37,2013-03-03 04:58:00,